Home > Weather > Dayton > Past weeks

Flag for U.S.A. Weather for the Past 2 Weeks in Dayton, Ohio, U.S.A.

Now
10 °F

Sunny.


Feels Like: -2 °F
Forecast: 8 / 17 °F
Wind: 7 mph from North

Location: Dayton / Wright-Patterson Air Force Base

Current Time: Feb 13, 2016 at 11:08:38 AM

Latest Report: Feb 13, 2016 at 9:58 AM


Visibility: 10 mi

Pressure: 30.57 "Hg

Humidity: 44%

Dew point: -8 °F

Location of DaytonLocation

Historic Weather in Dayton — Graph

°F

Dayton Temperature Yesterday

Maximum temperature yesterday: 26 °F (at 2:58 PM)
Minimum temperature yesterday: 10 °F (at 3:58 AM)
Average temperature yesterday: 19 °F

High & Low Weather Summary for the Past Weeks

 TemperatureHumidityPressure
High62 °F (Jan 30, 3:58 PM)100% (Feb 2, 9:58 PM)30.57 "Hg (Feb 2, 9:58 PM)
Low6 °F (Feb 11, 4:58 AM)27% (Feb 7, 2:58 PM)29.55 "Hg (Feb 3, 3:58 AM)
Average33 °F69%30.03 "Hg
* Reported Jan 29 9:58 AM — Feb 13 9:58 AM, Dayton, Weather by CustomWeather, © 2016

Note: Actual official high and low records may vary slightly from our data, if they occured in-between our weather recording intervals... More about our weather records

Advertising

Dayton Weather History for the Previous 24 Hours

 ConditionsComfort  
Time TempWeatherWind HumidityBarometerVisibility
9:58 AM
Sat, Feb 13
10 °FSunny.7 mph44%30.57 "Hg10 mi
8:58 AM7 °FSunny.10 mph55%30.55 "Hg10 mi
7:58 AM6 °FSunny.7 mph55%30.53 "Hg10 mi
6:58 AM8 °FClear.7 mph55%30.51 "Hg7 mi
5:58 AM10 °FPassing clouds.13 mph52%30.47 "Hg10 mi
4:58 AM11 °FPassing clouds.16 mph54%30.43 "Hg10 mi
3:58 AM12 °FLight snow. Mostly cloudy.14 mph83%30.40 "Hg1 mi
2:58 AM14 °FLight snow. Mostly cloudy.13 mph70%30.37 "Hg10 mi
1:58 AM14 °FPassing clouds.9 mph66%30.35 "Hg10 mi
12:58 AM15 °FClear.15 mph60%30.33 "Hg10 mi
11:58 PM
Fri, Feb 12
16 °FPassing clouds.16 mph62%30.31 "Hg10 mi
10:58 PM17 °FClear.13 mph65%30.28 "Hg10 mi
9:58 PM18 °FPassing clouds.14 mph58%30.26 "Hg10 mi
8:58 PM20 °FPassing clouds.14 mph57%30.23 "Hg10 mi
7:58 PM21 °FLight snow. Passing clouds.15 mph63%30.21 "Hg10 mi
6:58 PM22 °FLight snow. Partly cloudy.22 mph74%30.16 "Hg3 mi
5:58 PM24 °FLight snow. Partly sunny.15 mph80%30.12 "Hg7 mi
5:56 PM25 °FLight snow. Partly sunny.14 mph74%30.07 "Hg7 mi
4:58 PM26 °FLight snow. Broken clouds.16 mph66%30.11 "Hg7 mi
3:58 PM26 °FOvercast.17 mph56%30.09 "Hg10 mi
2:58 PM26 °FPartly sunny.18 mph53%30.09 "Hg10 mi
1:59 PM25 °FMore clouds than sun.16 mph54%30.05 "Hg10 mi
12:58 PM25 °FMostly cloudy.14 mph54%30.13 "Hg10 mi
11:58 AM24 °FOvercast.13 mph56%30.16 "Hg10 mi
Weather by CustomWeather, © 2016

See weather overviewHow to use our weather pages